Location: Maccacari
(45.1333°N, 11.1333°E)
Time: 22:14:20
(UTC+00:00)

NOSS 2-2 (C) - Pass Details

Date: 18 September 2020
Orbit: 468 x 1740 km, 63.3° (Epoch: 19 October)

Event Time Altitude Azimuth Distance (km) Brightness Sun altitude
Rises 18:14:28 0° 201° (SSW) 2,523 6.8 -10.3°
Reaches altitude 10° 18:16:37 10° 195° (SSW) 1,623 5.7 -10.7°
Maximum altitude 18:19:56 44° 121° (ESE) 671 3.3 -11.3°
Drops below altitude 10° 18:23:31 10° 49° (NE) 1,749 5.6 -11.9°
Sets 18:25:54 0° 43° (NE) 2,751 6.6 -12.3°
